Wind_Speed
28 29 30 30 30 31 32 32 34 32 33 31 32 33 34 34 33 33 32 32 32 32 32 33 34 34 35 36 36 37 37 37 37 37 36 36 37 37 38 38 39 39 40 40
30 30 32 32 31 32 33 34 34 34 34 32 33 34 34 34 33 33 33 33 33 33 33 33 33 34 35 35 36 36 36 36 37 37 37 37 37 37 37 38 38 38 38 39
32 32 33 33 31 33 34 34 35 36 34 34 34 35 35 35 35 34 34 34 34 34 34 34 34 34 34 34 35 35 36 36 36 37 37 37 37 37 37 37 37 37 37 38
32 33 34 32 32 33 34 35 35 36 36 36 36 36 36 36 36 35 35 35 35 35 35 35 34 34 34 34 34 34 35 36 36 36 36 36 36 36 36 36 36 36 36 36
32 33 34 33 33 34 35 35 35 36 36 36 36 36 36 36 37 37 36 37 36 35 35 35 35 35 34 34 33 33 34 35 36 36 35 35 36 36 36 36 36 35 35 34
33 34 35 33 33 34 35 35 34 35 36 36 36 36 35 35 36 37 37 37 36 35 35 35 35 34 34 34 34 34 35 35 35 35 35 35 35 35 35 34 34 34 34 33
33 35 35 33 33 34 35 35 35 35 35 35 35 35 35 35 35 36 35 35 36 35 35 34 35 35 34 35 35 35 34 35 35 34 34 34 34 34 34 34 33 33 34 34
33 35 34 34 34 35 35 34 34 34 35 35 35 34 34 34 34 34 34 34 35 35 35 35 34 34 34 34 34 34 34 34 34 33 33 33 33 33 32 33 33 33 34 34
34 35 35 35 35 35 35 34 34 34 34 35 35 35 34 34 33 33 33 33 33 34 34 34 34 34 34 34 33 33 34 33 33 33 33 32 32 32 32 33 33 33 34 34
35 35 35 36 36 36 36 35 35 35 35 35 35 35 34 34 33 33 33 33 33 33 33 33 33 33 33 33 33 33 33 33 33 33 33 33 33 33 33 33 34 34 34 34
36 35 36 36 36 36 36 35 35 35 35 35 35 35 34 33 33 33 32 32 32 33 32 32 32 32 32 33 33 32 32 32 32 32 32 33 33 32 32 33 33 33 33 33
35 35 36 35 35 35 35 34 34 35 35 36 36 35 34 33 33 33 32 32 32 32 31 31 31 31 31 31 32 32 32 32 32 32 32 32 32 33 33 33 33 33 33 34
35 34 35 34 33 33 34 35 35 35 35 34 34 34 34 33 32 32 32 32 31 31 31 30 30 30 30 31 31 31 31 31 31 31 31 31 32 32 32 32 32 32 32 33
34 34 34 34 33 33 34 34 34 34 33 33 33 33 33 33 32 32 31 31 30 31 30 30 29 30 30 30 30 30 31 31 31 30 30 30 31 31 31 31 31 31 32 32
34 34 34 33 33 33 33 32 32 32 31 32 32 32 32 31 31 30 30 30 30 29 29 28 28 28 29 30 30 29 29 29 30 29 29 29 29 29 29 30 30 30 30 30
33 32 32 32 31 32 32 32 31 31 31 31 30 30 30 30 30 30 29 29 28 28 28 28 28 28 28 29 29 28 28 28 28 28 28 28 28 28 28 28 28 29 28 28
31 30 30 29 30 30 31 30 30 30 30 29 29 29 29 29 29 29 28 28 28 28 28 28 27 28 28 28 28 27 27 26 26 26 27 27 27 27 27 28 27 27 27 27
29 29 29 29 29 29 29 29 30 29 29 28 28 28 28 28 28 28 28 28 28 28 28 28 27 27 27 27 27 27 26 26 26 26 26 26 26 26 26 26 25 25 26 25
28 28 28 28 29 29 29 29 29 29 28 27 26 27 27 27 27 27 27 27 26 26 27 27 27 27 27 26 26 26 26 26 26 26 26 26 25 25 25 24 24 24 24 24
27 28 27 28 28 28 28 27 27 27 26 25 25 24 24 25 25 26 26 26 25 25 25 25 26 25 25 25 25 25 25 25 25 25 24 24 24 24 23 23 23 23 23 23
26 26 26 26 26 26 26 25 25 24 23 23 23 23 23 24 24 24 24 24 24 24 25 24 24 24 24 24 24 24 23 23 23 23 23 23 22 22 22 22 22 22 22 22
25 24 24 25 24 24 23 22 22 22 22 22 22 22 22 22 23 23 23 23 23 23 23 22 22 22 22 22 22 22 22 22 22 22 22 22 22 22 22 22 22 22 22 22
23 22 22 22 22 22 22 22 21 21 21 21 21 21 22 22 22 22 22 23 23 22 22 22 22 22 22 22 22 21 21 21 21 21 21 21 21 21 22 22 21 21 21 21
22 21 21 21 21 21 21 21 21 21 21 21 21 21 22 22 22 22 22 21 21 21 22 22 21 21 21 21 21 21 21 21 21 21 21 21 22 21 21 21 20 20 19 19
22 21 21 21 21 21 21 21 21 21 21 21 21 21 21 22 21 20 20 20 21 21 21 21 21 21 21 21 21 21 21 21 21 21 21 21 21 21 20 20 19 18 18 18
22 21 21 20 20 20 20 20 20 20 20 20 20 21 21 20 20 20 20 20 20 21 21 21 22 22 22 21 22 22 21 21 21 20 20 20 20 19 19 18 18 17 17 17
21 21 21 20 20 19 19 19 19 19 19 19 19 19 19 19 19 20 20 20 20 20 21 21 21 21 21 20 20 20 20 20 20 20 19 19 19 18 18 17 17 16 16 16
Wind_Direction
266 267 268 268 268 267 268 270 272 273 274 274 274 274 276 278 278 277 276 276 277 278 277 276 275 274 273 273 273 274 273 273 273 273 273 274 274 274 274 274 274 275 276 275
266 269 269 268 269 268 269 270 272 274 275 275 274 273 275 276 277 277 277 277 277 278 278 277 276 276 275 273 273 273 273 272 272 272 272 274 275 275 275 275 275 276 275 275
269 270 270 269 269 270 271 272 274 276 276 276 275 274 275 275 276 277 277 278 278 278 278 277 277 277 277 276 275 274 273 272 273 272 272 273 274 274 275 276 276 275 275 275
273 273 272 274 273 272 272 273 275 276 276 277 276 274 274 275 275 275 276 278 279 278 277 277 277 277 277 277 277 276 274 273 273 272 272 272 273 274 275 276 276 275 275 275
273 275 276 275 276 275 274 274 275 276 276 277 277 276 275 275 275 275 276 277 278 277 276 277 277 277 277 277 277 277 276 276 275 274 273 273 273 274 274 275 275 275 275 276
273 275 277 278 278 277 276 277 277 277 277 278 277 276 275 275 275 275 276 277 278 278 277 277 277 277 277 277 278 278 277 277 277 275 274 274 274 274 274 275 274 274 275 276
273 275 277 279 280 279 279 280 279 278 277 278 278 278 277 276 276 275 275 276 277 278 278 278 277 277 277 278 278 277 277 277 277 275 274 274 274 274 274 274 274 274 275 276
275 276 279 280 279 279 280 280 281 280 279 278 278 278 277 277 277 277 276 276 277 277 277 278 277 277 277 277 277 277 276 276 276 275 274 274 274 275 275 274 274 275 275 276
274 276 278 279 280 280 279 280 280 279 279 279 280 279 278 277 277 276 276 275 276 277 276 277 276 275 276 276 276 276 276 276 276 274 275 275 275 275 275 276 275 275 277 277
276 277 277 278 279 279 279 279 278 278 278 279 280 279 278 277 276 275 274 274 275 277 276 276 276 275 275 276 276 276 275 276 276 277 275 274 275 276 277 278 278 278 278 278
276 278 279 278 278 278 278 278 278 278 278 278 279 278 277 276 276 275 274 274 275 276 276 275 275 275 275 275 275 275 276 275 275 275 275 274 275 277 278 279 280 280 280 280
277 278 279 279 278 277 277 276 276 277 278 278 278 278 276 276 275 275 275 275 275 275 275 274 274 274 274 274 274 274 274 275 276 276 275 274 274 276 278 278 280 281 281 281
277 279 280 280 278 277 276 276 276 277 278 278 278 277 276 276 275 275 275 275 274 274 274 274 273 273 273 273 272 274 274 275 276 277 276 276 276 277 278 279 281 282 282 282
278 279 279 279 278 278 277 277 277 278 278 277 278 277 276 275 274 274 274 274 274 274 275 274 273 273 273 273 273 274 274 274 275 276 276 276 276 278 279 279 280 281 282 283
278 279 278 278 279 279 278 277 277 276 276 277 276 275 274 273 273 273 273 274 274 275 275 275 275 274 273 273 274 275 276 276 276 276 276 276 278 280 281 281 281 281 282 283
278 278 280 280 279 279 278 278 278 277 276 277 275 274 273 272 272 272 273 274 274 275 275 276 277 277 275 275 275 277 277 277 277 277 277 278 279 281 282 282 282 282 282 283
278 278 279 279 279 279 278 278 277 277 276 276 275 273 272 272 271 271 272 273 274 274 274 276 277 277 276 275 276 277 277 278 278 278 278 278 280 281 282 282 283 283 283 284
277 278 279 279 279 279 279 277 275 275 275 276 276 275 274 273 273 272 272 272 273 274 274 275 276 277 277 276 276 276 276 278 278 278 278 278 279 281 282 283 284 284 285 285
277 278 279 279 279 280 279 277 276 276 276 276 275 275 274 274 274 273 273 273 275 275 275 275 275 276 276 276 277 277 276 277 276 276 277 277 279 280 281 283 284 284 284 285
278 278 278 280 281 282 280 278 277 276 275 275 274 274 273 273 273 273 273 273 275 276 276 277 277 277 277 276 277 277 276 276 275 276 277 279 279 280 282 283 285 285 284 285
280 279 280 280 282 282 280 277 274 274 274 274 274 273 274 274 274 274 274 274 275 275 276 277 277 277 277 277 277 277 276 275 275 275 277 279 281 281 282 283 284 284 285 287
281 281 282 281 280 279 278 276 273 273 273 274 275 275 276 276 276 276 276 275 275 276 276 275 276 277 277 277 276 276 275 274 275 275 277 278 280 281 282 282 283 284 285 287
283 283 284 282 280 278 276 275 273 272 273 275 276 277 278 279 279 279 277 275 275 276 275 274 275 276 276 275 275 274 274 275 275 275 276 278 279 281 282 282 283 283 284 286
283 282 282 281 279 278 276 275 275 275 275 275 276 277 279 280 280 279 278 276 275 276 276 274 274 274 275 273 272 274 275 276 276 276 276 278 280 281 282 282 282 283 284 285
280 281 282 282 280 279 278 277 277 277 277 276 276 277 279 280 280 279 278 278 279 279 278 275 274 274 274 273 272 274 276 277 278 278 278 279 280 280 280 280 281 281 282 285
279 280 280 281 282 280 279 280 280 279 278 277 277 278 280 280 280 279 280 281 282 282 280 277 275 275 275 273 273 274 275 276 277 278 278 278 278 278 277 278 279 280 281 283
280 279 278 279 282 281 280 281 281 280 279 279 280 280 281 282 282 282 282 283 284 284 283 281 278 275 274 273 274 274 273 273 275 276 277 277 275 274 274 275 277 279 280 280
Height
5600 5601 5601 5602 5602 5602 5602 5602 5602 5604 5604 5605 5604 5602 5601 5600 5599 5599 5599 5598 5597 5597 5596 5595 5594 5593 5592 5591 5590 5590 5589 5589 5588 5588 5587 5586 5586 5585 5585 5584 5584 5583 5583 5582
5593 5593 5592 5593 5594 5594 5594 5594 5593 5593 5594 5596 5594 5592 5592 5591 5590 5590 5589 5589 5588 5587 5586 5585 5584 5583 5582 5581 5581 5580 5579 5579 5578 5577 5577 5576 5576 5575 5574 5574 5574 5573 5573 5572
5584 5585 5583 5585 5588 5586 5585 5585 5585 5584 5586 5585 5584 5583 5582 5582 5581 5580 5580 5579 5578 5577 5576 5575 5575 5574 5572 5571 5571 5570 5569 5568 5567 5567 5566 5566 5565 5565 5564 5564 5563 5563 5562 5562
5575 5576 5575 5580 5578 5578 5576 5576 5576 5575 5575 5574 5574 5573 5572 5572 5571 5571 5570 5570 5569 5567 5566 5565 5565 5564 5563 5562 5560 5559 5558 5558 5557 5556 5556 5555 5555 5555 5554 5553 5553 5552 5552 5551
5566 5565 5565 5569 5569 5568 5567 5567 5567 5565 5565 5564 5563 5563 5563 5562 5561 5560 5560 5559 5558 5557 5556 5555 5555 5554 5552 5551 5550 5549 5548 5547 5546 5546 5545 5545 5545 5544 5544 5543 5543 5542 5541 5541
5558 5557 5557 5560 5559 5558 5558 5557 5558 5556 5555 5554 5553 5553 5554 5552 5551 5550 5549 5548 5548 5547 5546 5545 5544 5543 5542 5541 5540 5539 5538 5537 5536 5535 5535 5535 5534 5534 5533 5533 5532 5532 5531 5531
5549 5547 5548 5551 5549 5548 5549 5549 5547 5545 5544 5544 5543 5543 5543 5541 5540 5539 5539 5538 5537 5537 5536 5535 5534 5533 5532 5531 5530 5529 5528 5527 5526 5525 5525 5524 5524 5523 5523 5523 5522 5522 5522 5521
5540 5539 5542 5541 5540 5539 5538 5537 5536 5535 5534 5533 5533 5532 5531 5530 5530 5529 5529 5528 5527 5527 5526 5525 5523 5523 5522 5521 5520 5519 5518 5517 5516 5515 5515 5515 5514 5514 5513 5513 5513 5512 5512 5511
5532 5534 5533 5531 5530 5529 5528 5527 5526 5525 5524 5523 5522 5521 5521 5520 5519 5519 5518 5518 5517 5516 5516 5515 5513 5513 5512 5511 5509 5509 5508 5507 5506 5506 5505 5505 5504 5504 5504 5503 5503 5502 5502 5501
5522 5523 5523 5521 5520 5519 5518 5517 5516 5514 5513 5513 5511 5511 5510 5510 5509 5509 5508 5508 5507 5506 5506 5505 5504 5503 5502 5500 5499 5498 5498 5497 5497 5496 5496 5495 5495 5494 5494 5493 5493 5492 5491 5491
5512 5513 5512 5511 5510 5509 5507 5506 5505 5504 5503 5502 5501 5500 5500 5499 5499 5499 5498 5498 5497 5496 5495 5495 5494 5493 5492 5491 5489 5489 5488 5487 5487 5486 5486 5485 5485 5484 5484 5483 5482 5482 5481 5480
5503 5503 5501 5501 5500 5499 5497 5496 5495 5494 5493 5492 5491 5490 5489 5489 5489 5488 5488 5487 5487 5486 5485 5485 5484 5483 5482 5481 5480 5479 5479 5478 5477 5477 5476 5476 5475 5475 5474 5473 5472 5471 5470 5470
5492 5492 5490 5490 5489 5488 5487 5486 5485 5484 5483 5481 5481 5480 5479 5478 5478 5478 5478 5477 5477 5476 5475 5475 5474 5474 5473 5472 5471 5470 5469 5469 5468 5467 5467 5466 5466 5465 5465 5464 5463 5462 5460 5459
5482 5481 5480 5480 5479 5478 5476 5475 5474 5473 5472 5471 5470 5469 5468 5468 5468 5468 5468 5467 5467 5466 5466 5465 5465 5464 5464 5463 5462 5461 5460 5459 5459 5458 5458 5457 5457 5456 5455 5454 5454 5452 5451 5449
5473 5471 5470 5469 5468 5467 5466 5465 5464 5463 5462 5461 5460 5459 5458 5458 5458 5458 5458 5458 5457 5457 5457 5456 5456 5455 5454 5453 5452 5452 5451 5450 5449 5449 5448 5448 5447 5447 5446 5445 5444 5443 5442 5440
5462 5461 5460 5459 5458 5457 5455 5454 5454 5453 5452 5451 5450 5449 5449 5449 5448 5449 5449 5448 5448 5448 5448 5447 5447 5446 5445 5444 5443 5443 5442 5441 5441 5440 5439 5439 5438 5438 5437 5436 5435 5434 5433 5432
5452 5451 5450 5449 5448 5447 5445 5444 5443 5443 5442 5441 5441 5440 5440 5439 5439 5439 5439 5439 5439 5439 5439 5438 5437 5437 5436 5435 5435 5434 5433 5433 5432 5432 5431 5430 5430 5429 5428 5427 5426 5425 5424 5423
5443 5442 5441 5439 5438 5437 5436 5435 5434 5433 5433 5432 5431 5431 5431 5431 5430 5430 5430 5430 5430 5430 5430 5429 5428 5428 5428 5427 5426 5426 5425 5425 5424 5423 5423 5422 5422 5421 5420 5419 5418 5417 5416 5415
5434 5433 5431 5430 5429 5427 5426 5425 5425 5424 5424 5423 5423 5422 5422 5422 5421 5421 5421 5421 5421 5421 5421 5420 5420 5419 5419 5418 5418 5417 5417 5417 5416 5416 5415 5414 5413 5413 5412 5411 5410 5409 5408 5407
5425 5424 5423 5421 5420 5418 5417 5416 5416 5415 5415 5415 5414 5414 5414 5413 5413 5413 5413 5413 5413 5413 5412 5412 5411 5411 5411 5410 5410 5409 5409 5408 5408 5408 5407 5406 5406 5405 5405 5404 5403 5402 5401 5400
5416 5415 5414 5413 5411 5410 5409 5408 5407 5407 5407 5407 5406 5406 5406 5406 5405 5405 5405 5405 5405 5404 5404 5404 5403 5403 5403 5402 5402 5401 5401 5401 5400 5400 5400 5399 5399 5398 5397 5397 5396 5395 5394 5393
5408 5407 5406 5405 5404 5402 5401 5401 5400 5400 5400 5400 5399 5399 5399 5398 5398 5398 5397 5397 5397 5396 5396 5396 5396 5395 5395 5394 5394 5394 5394 5393 5393 5393 5392 5392 5392 5391 5390 5390 5389 5388 5387 5386
5401 5400 5399 5398 5396 5395 5395 5394 5394 5393 5393 5393 5393 5392 5392 5391 5391 5390 5390 5390 5389 5389 5389 5388 5388 5388 5387 5387 5387 5387 5386 5386 5386 5386 5385 5385 5384 5384 5383 5382 5382 5381 5380 5379
5394 5393 5392 5391 5390 5389 5388 5388 5387 5387 5387 5386 5386 5386 5385 5385 5384 5383 5383 5382 5382 5381 5381 5381 5380 5380 5380 5380 5380 5380 5379 5379 5379 5379 5378 5378 5377 5377 5376 5375 5375 5374 5373 5373
5388 5387 5386 5385 5384 5383 5382 5381 5381 5381 5380 5380 5379 5379 5378 5378 5377 5377 5376 5375 5375 5374 5374 5373 5373 5373 5373 5372 5373 5373 5372 5372 5372 5371 5371 5371 5370 5370 5369 5369 5368 5368 5367 5367
5381 5380 5379 5378 5377 5377 5376 5375 5375 5374 5374 5374 5373 5373 5372 5371 5370 5370 5370 5369 5368 5367 5367 5366 5366 5366 5365 5365 5365 5365 5365 5365 5365 5364 5364 5364 5363 5363 5363 5362 5362 5362 5361 5361
5374 5374 5373 5372 5371 5371 5370 5369 5369 5368 5368 5367 5367 5366 5366 5365 5364 5364 5363 5362 5362 5361 5360 5359 5359 5358 5358 5358 5358 5358 5358 5358 5358 5357 5357 5357 5357 5357 5357 5356 5356 5356 5356 5355